sat.trackr.live / text

‹ back to catalog

STARLINK-32629

NORAD 62150 · 2024-224M

PAYLOAD ACTIVE UNKNOWN

§ Identity

Operator
Country
US
Launch date
2024-11-30
Launch site
AFETR
Launch vehicle
Mass (kg)
RCS (m²)

Purposes: comms

External: N2YO · Heavens-Above · Gunter

§ Orbital elements

Epoch: 2026-09-20T22:15:22.887072Z

Period
94.27 min
Inclination
43.0007°
Eccentricity
0.0001278
Mean motion
15.27602593 rev/d
Perigee alt
482.1 km
Apogee alt
483.9 km
Semi-major
6,861.1 km
B*
3.4811e-4
RAAN
135.1071°
Arg perigee
264.1144°
Mean anomaly
95.9562°
Rev number
10,234

§ Raw data

STARLINK-326291 62150U 24224M   26263.92734823  .00009336  00000+0  34811-3 0  99952 62150  43.0007 135.1071 0001278 264.1144  95.9562 15.27602593102344

JSON: /api/v1/satellites/62150 · /tle

For live sub-satellite position, see the globe view (requires WebGL).

§ Visibility from observer

Set your observer location to see the next 7 days of passes ≥ 10°. The values pass through the URL so the page stays shareable.

No JS? Fill the form by hand. The geolocation button needs JavaScript.